1500332401.11,49051,16.94,74574.8,4.47,4.01,3.93,0,*7F
1500332402.32,49052,16.94,74574.5,4.49,4.05,3.93,0,*76
1500332403.57,49053,16.94,74572.5,4.47,4.01,4.01,0,*71
1500332404.82,49054,16.94,74572.8,4.47,4.01,4.05,0,*72
1500332406.07,49055,16.94,74572.8,4.47,4.01,4.05,0,*73
1500332407.33,49056,16.94,74572.5,4.47,4.05,4.01,0,*70
1500332408.57,49057,16.94,74572.3,4.47,4.01,4.01,0,*75
1500332409.8,49058,16.94,74574.8,4.47,3.93,4.01,0,*76
1500332411.05,49059,16.94,74576.8,4.47,4.01,4.01,0,*7B
1500332412.3,49060,16.94,74578.8,4.47,4.01,4.01,0,*71
1500332413.51,49061,16.94,74574.3,4.47,3.93,3.89,0,*7B
1500332414.71,49062,16.94,74574.8,4.49,4.01,3.93,0,*71
1500332415.9,49063,16.94,74574.3,4.49,3.89,3.89,0,*7C
1500332417.14,49064,16.94,74578.0,4.51,3.97,3.97,0,*72
1500332418.35,49065,16.94,74580.5,4.49,3.89,4.01,0,*7D
1500332419.53,49066,16.94,74576.5,4.49,3.89,3.93,0,*72
1500332420.72,49067,16.94,74576.3,4.49,3.89,3.93,0,*73
1500332421.93,49068,16.94,74580.5,4.51,3.93,3.93,0,*7E
1500332423.11,49069,16.94,74580.0,4.49,3.89,3.81,0,*7E
1500332424.3,49070,16.94,74576.0,4.49,3.89,3.89,0,*7E
1500332425.48,49071,16.94,74576.0,4.49,3.89,3.89,0,*7F
1500332426.67,49072,16.94,74572.5,4.49,3.89,3.89,0,*7C
1500332427.85,49073,16.94,74578.3,4.49,3.89,3.89,0,*7D
1500332429.04,49074,16.94,74572.8,4.49,3.81,3.81,0,*7A
1500332430.22,49075,16.94,74578.3,4.49,3.81,3.81,0,*7B
1500332431.4,49076,16.94,74574.8,4.49,3.81,3.81,0,*78
1500332432.6,49077,16.94,74574.8,4.51,3.81,3.85,0,*74
1500332433.85,49078,16.94,74576.0,4.47,3.79,3.79,0,*78
1500332435.1,49079,16.94,74574.0,4.47,3.79,3.79,0,*79
1500332436.36,49080,16.94,74572.3,4.47,3.79,3.79,0,*7F
1500332437.62,49081,16.94,74578.3,4.47,3.75,3.75,0,*7E
1500332438.88,49082,16.94,74572.5,4.47,3.67,3.75,0,*7E
1500332440.14,49083,16.94,74576.0,4.47,3.67,3.75,0,*7F
1500332441.37,49084,16.94,74576.5,4.45,3.71,3.71,0,*79
1500332442.63,49085,16.94,74576.3,4.47,3.75,3.75,0,*7A
1500332443.89,49086,16.94,74572.5,4.47,3.79,3.75,0,*75
1500332445.14,49087,16.94,74574.8,4.47,3.79,3.75,0,*74
1500332446.4,49088,16.94,74574.3,4.47,3.79,3.79,0,*77
1500332447.63,49089,16.94,74572.3,4.45,3.79,3.75,0,*78
1500332448.88,49090,16.94,74574.5,4.47,3.79,3.79,0,*7E
1500332450.12,49091,16.94,74572.3,4.45,3.75,3.75,0,*7D
1500332451.32,49092,16.94,74570.5,4.47,3.81,3.89,0,*74
1500332452.58,49093,16.94,74572.0,4.47,3.79,3.79,0,*7D
1500332453.81,49094,16.94,74572.8,4.45,3.75,3.75,0,*78
1500332455.06,49095,16.94,74574.8,4.47,3.79,3.79,0,*7B
1500332456.32,49096,16.94,74572.0,4.47,3.79,3.79,0,*78
1500332457.55,49097,16.94,74572.8,4.45,3.79,3.75,0,*77
1500332458.75,49098,16.94,74572.3,4.45,3.81,3.79,0,*73
1500332459.99,49099,16.94,74574.3,4.45,3.75,3.75,0,*75
1500332461.24,49100,16.94,74572.8,4.47,3.79,3.79,0,*76
1500332462.47,49101,16.94,74574.0,4.45,3.75,3.75,0,*75
1500332463.73,49102,16.94,74572.0,4.47,3.79,3.79,0,*74
1500332464.98,49103,16.94,74574.5,4.47,3.79,3.79,0,*75
1500332466.22,49104,16.94,74572.3,4.45,3.75,3.75,0,*70
1500332467.47,49105,16.94,74572.5,4.47,3.79,3.79,0,*73
1500332468.72,49106,16.94,74572.8,4.47,3.79,3.79,0,*70
1500332469.95,49107,16.94,74570.8,4.45,3.75,3.79,0,*7F
1500332471.19,49108,16.94,74570.5,4.45,3.75,3.79,0,*70
1500332472.41,49109,16.94,74570.0,4.45,3.79,3.79,0,*7D
1500332473.65,49110,16.94,74572.8,4.45,3.79,3.75,0,*79
1500332474.87,49111,16.94,74570.0,4.45,3.79,3.79,0,*74
1500332476.05,49112,16.94,74570.0,4.45,3.85,3.85,0,*77
1500332477.27,49113,16.94,74572.0,4.45,3.97,3.97,0,*76
1500332478.48,49114,16.94,74572.3,4.47,3.93,3.93,0,*73
1500332479.66,49115,16.94,74574.3,4.45,3.89,3.89,0,*70
1500332480.83,49116,16.94,74574.5,4.45,3.85,3.85,0,*73
1500332482.04,49117,16.94,74574.8,4.47,3.93,3.93,0,*70
1500332483.23,49118,16.94,74572.5,4.45,3.89,3.89,0,*7D
1500332484.43,49119,16.94,74574.3,4.45,3.89,3.97,0,*73
1500332485.63,49120,16.94,74570.8,4.49,3.93,4.01,0,*76
1500332486.84,49121,16.94,74576.3,4.45,3.97,3.89,0,*78
1500332488.05,49122,16.94,74568.8,4.47,3.93,3.93,0,*76
1500332489.23,49123,16.94,74572.3,4.49,3.93,3.93,0,*79
1500332490.46,49124,16.94,74572.5,4.47,3.93,4.01,0,*7C
1500332491.69,49125,16.94,74570.3,4.47,3.93,4.01,0,*7D
1500332492.92,49126,16.94,74568.8,4.47,4.01,3.93,0,*7E
1500332494.15,49127,16.94,74572.3,4.47,3.89,4.01,0,*74
1500332495.35,49128,16.94,74574.3,4.47,3.93,3.93,0,*7C
1500332496.56,49129,16.94,74574.0,4.49,3.93,4.01,0,*7F
1500332497.76,49130,16.94,74572.5,4.49,3.93,4.01,0,*77
1500332498.99,49131,16.94,74574.3,4.49,4.05,4.01,0,*7E
1500332500.22,49132,16.94,74572.0,4.49,4.01,4.01,0,*79
1500332501.43,49133,16.94,74574.0,4.47,3.89,3.89,0,*76
1500332502.61,49134,16.94,74572.3,4.49,3.93,3.89,0,*74
1500332503.8,49135,16.94,74574.3,4.49,3.93,3.93,0,*7E
1500332504.98,49136,16.94,74572.5,4.49,3.93,3.93,0,*7D
1500332506.17,49137,16.94,74572.5,4.49,3.93,3.93,0,*7C
1500332507.38,49138,16.94,74576.0,4.47,3.93,3.93,0,*7D
1500332508.59,49139,16.94,74574.5,4.47,3.93,3.93,0,*7C
1500332509.82,49140,16.94,74574.0,4.47,3.93,4.01,0,*7E
1500332511.04,49141,16.94,74574.3,4.47,3.93,4.01,0,*7F
1500332512.25,49142,16.94,74576.5,4.47,3.93,3.93,0,*70
1500332513.46,49143,16.94,74576.0,4.47,3.89,3.93,0,*7A
1500332514.65,49144,16.94,74574.3,4.49,3.89,3.93,0,*73
1500332515.83,49145,16.94,74578.3,4.49,3.89,3.89,0,*79
1500332517.02,49146,16.94,74572.3,4.49,3.89,3.81,0,*72
1500332518.2,49147,16.94,74574.5,4.49,3.93,3.89,0,*70
1500332519.41,49148,16.94,74574.5,4.49,3.79,3.81,0,*73
1500332520.6,49149,16.94,74574.5,4.49,3.81,3.81,0,*75
1500332521.84,49150,16.94,74576.0,4.51,3.97,3.97,0,*74
1500332523.03,49151,16.94,74576.3,4.49,3.89,3.81,0,*74
1500332524.21,49152,16.94,74578.3,4.49,3.93,3.93,0,*7F
1500332525.4,49153,16.94,74576.3,4.49,3.93,3.89,0,*75
1500332526.58,49154,16.94,74572.5,4.49,3.89,3.89,0,*79
1500332527.83,49155,16.94,74574.8,4.51,3.97,3.97,0,*71
1500332529.03,49156,16.94,74574.8,4.49,3.93,4.01,0,*77
1500332530.24,49157,16.94,74578.3,4.49,3.89,4.01,0,*7D
1500332531.44,49158,16.94,74572.3,4.49,3.93,4.01,0,*79
1500332532.67,49159,16.94,74572.8,4.49,4.01,4.05,0,*70
1500332533.9,49160,16.94,74574.0,4.49,4.01,4.01,0,*7E
1500332535.12,49161,16.94,74572.3,4.49,4.01,4.05,0,*7B
1500332536.33,49162,16.94,74578.5,4.49,3.93,4.01,0,*70
1500332537.55,49163,16.94,74574.8,4.49,4.01,4.01,0,*7D
1500332538.78,49164,16.94,74576.3,4.49,4.01,4.01,0,*7A
1500332540.0,49165,16.94,74578.8,4.49,4.01,4.01,0,*7B
1500332541.18,49166,16.94,74578.3,4.49,3.93,3.93,0,*78
1500332542.37,49167,16.94,74576.5,4.49,3.89,3.93,0,*72
1500332543.57,49168,16.94,74576.5,4.51,3.85,3.93,0,*78
1500332544.76,49169,16.94,74578.0,4.49,3.89,3.89,0,*77
1500332545.95,49170,16.94,74574.5,4.49,3.89,3.89,0,*7F
1500332547.13,49171,16.94,74574.5,4.49,3.89,3.81,0,*76
1500332548.36,49172,16.94,74576.8,4.51,3.97,3.93,0,*70
1500332549.54,49173,16.94,74576.3,4.49,3.89,3.89,0,*7C
1500332550.73,49174,16.94,74572.3,4.49,3.89,3.89,0,*7B
1500332551.95,49175,16.94,74574.0,4.51,3.97,3.93,0,*77
1500332553.18,49176,16.94,74578.3,4.51,3.97,3.93,0,*74
1500332554.38,49177,16.94,74578.0,4.51,3.93,3.93,0,*71
1500332555.57,49178,16.94,74578.5,4.49,3.89,3.93,0,*7C
1500332556.76,49179,16.94,74574.0,4.49,3.89,3.89,0,*76
1500332557.98,49180,16.94,74576.5,4.51,3.93,3.97,0,*7D
1500332559.21,49181,16.94,74576.0,4.51,3.97,3.93,0,*7C
1500332560.43,49182,16.94,74578.5,4.51,3.93,3.97,0,*7F
1500332561.68,49183,16.94,74576.3,4.51,3.97,3.97,0,*7A
1500332562.93,49184,16.94,74576.8,4.51,3.97,4.05,0,*71
1500332564.11,49185,16.94,74576.3,4.49,3.93,3.93,0,*75
1500332565.37,49186,16.94,74576.0,4.51,4.05,3.97,0,*73
1500332566.57,49187,16.94,74574.8,4.49,3.93,4.05,0,*7F
1500332567.78,49188,16.94,74572.8,4.49,3.93,4.01,0,*74
1500332568.98,49189,16.94,74576.0,4.49,3.93,4.01,0,*75
1500332570.24,49190,16.94,74576.5,4.51,4.05,4.05,0,*78
1500332571.48,49191,16.94,74572.5,4.51,3.97,3.97,0,*79
1500332572.67,49192,16.94,74572.8,4.49,3.93,3.93,0,*73
1500332573.92,49193,16.94,74574.5,4.51,4.05,3.97,0,*77
1500332575.11,49194,16.94,74572.5,4.49,3.93,3.93,0,*75
1500332576.29,49195,16.94,74570.5,4.49,3.93,3.89,0,*7F
1500332577.54,49196,16.94,74572.0,4.51,3.97,3.97,0,*7E
1500332578.76,49197,16.94,74572.0,4.51,3.93,3.97,0,*7B
1500332579.95,49198,16.94,74572.8,4.49,3.89,3.93,0,*72
1500332581.17,49199,16.94,74572.5,4.51,3.93,3.97,0,*75
1500332582.42,49200,16.94,74574.5,4.51,3.97,3.97,0,*72
1500332583.67,49201,16.94,74572.3,4.51,3.97,3.97,0,*73
1500332584.85,49202,16.94,74574.0,4.49,3.93,3.93,0,*79
1500332586.04,49203,16.94,74574.0,4.53,3.93,3.93,0,*73
1500332587.24,49204,16.94,74574.0,4.51,3.93,3.93,0,*76
1500332588.43,49205,16.94,74574.5,4.49,3.89,3.93,0,*75
1500332589.61,49206,16.94,74574.5,4.49,3.93,3.93,0,*7D
1500332590.8,49207,16.94,74576.5,4.49,3.93,3.93,0,*7C
1500332591.98,49208,16.94,74576.0,4.49,3.93,3.93,0,*73
1500332593.17,49209,16.94,74576.5,4.49,3.93,3.93,0,*72
1500332594.35,49210,16.94,74572.0,4.49,3.89,3.93,0,*71
1500332595.54,49211,16.94,74574.0,4.49,3.93,3.93,0,*7B
1500332596.72,49212,16.94,74574.5,4.49,3.89,3.89,0,*78
1500332597.97,49213,16.94,74574.0,4.51,3.97,3.97,0,*70
1500332599.22,49214,16.94,74574.0,4.51,3.97,3.97,0,*77
1500332600.4,49215,16.94,74578.8,4.49,3.89,3.89,0,*7F
1500332601.59,49216,16.94,74578.3,4.49,3.93,3.93,0,*7C
1500332602.79,49217,16.94,74572.3,4.51,3.93,3.93,0,*74
1500332604.0,49218,16.94,74578.0,4.51,3.93,3.93,0,*7B
1500332605.18,49219,16.94,74578.5,4.49,3.93,3.93,0,*73
1500332606.39,49220,16.94,74574.0,4.51,3.85,3.93,0,*77
1500332607.63,49221,16.94,74576.5,4.51,3.97,3.97,0,*71
1500332608.86,49222,16.94,74578.0,4.51,3.93,3.97,0,*76
1500332610.04,49223,16.94,74576.0,4.49,3.89,3.93,0,*71
1500332611.23,49224,16.94,74576.3,4.49,3.81,3.93,0,*7E
1500332612.43,49225,16.94,74574.8,4.51,3.93,3.93,0,*75
1500332613.62,49226,16.94,74578.3,4.49,3.89,3.89,0,*7F
1500332614.82,49227,16.94,74578.0,4.51,3.93,3.93,0,*77
1500332616.03,49228,16.94,74578.3,4.53,3.97,3.93,0,*7E
1500332617.22,49229,16.94,74576.0,4.51,3.85,3.85,0,*79
1500332618.41,49230,16.94,74572.0,4.49,3.81,3.81,0,*78
1500332619.64,49231,16.94,74574.8,4.49,3.79,3.79,0,*79
1500332620.84,49232,16.94,74576.8,4.51,3.85,3.81,0,*77
1500332622.04,49233,16.94,74578.8,4.51,3.81,3.81,0,*72
1500332623.22,49234,16.94,74576.3,4.49,3.85,3.93,0,*7B
1500332624.43,49235,16.94,74576.0,4.51,3.93,3.93,0,*74
1500332625.61,49236,16.94,74576.8,4.49,3.81,3.81,0,*7E
1500332626.81,49237,16.94,74576.8,4.49,3.97,3.93,0,*7B
1500332628.04,49238,16.94,74576.5,4.51,3.97,3.93,0,*7D
1500332629.25,49239,16.94,74580.0,4.49,3.79,3.89,0,*7E
1500332630.45,49240,16.94,74574.3,4.51,3.81,3.85,0,*72
1500332631.65,49241,16.94,74574.3,4.51,3.93,3.81,0,*74
1500332632.86,49242,16.94,74576.8,4.49,3.79,3.81,0,*7A
1500332634.04,49243,16.94,74574.0,4.49,3.81,3.81,0,*7C
1500332635.25,49244,16.94,74578.0,4.51,3.85,3.81,0,*76
1500332636.43,49245,16.94,74578.8,4.49,3.81,3.93,0,*79
1500332637.61,49246,16.94,74578.3,4.49,3.81,3.89,0,*71
1500332638.81,49247,16.94,74576.8,4.51,3.93,3.85,0,*76
1500332639.99,49248,16.94,74578.5,4.49,3.81,3.81,0,*77
1500332641.22,49249,16.94,74572.8,4.49,3.79,3.79,0,*76
1500332642.45,49250,16.94,74572.5,4.49,3.79,3.79,0,*7E
1500332643.68,49251,16.94,74578.5,4.49,3.79,3.79,0,*7F
1500332644.88,49252,16.94,74572.3,4.51,3.85,3.93,0,*72
1500332646.07,49253,16.94,74576.3,4.49,3.81,3.81,0,*7D
1500332647.28,49254,16.94,74574.3,4.49,3.79,3.81,0,*7D
1500332648.46,49255,16.94,74576.0,4.49,3.81,3.81,0,*7B
1500332649.66,49256,16.94,74576.0,4.49,3.81,3.79,0,*7F
1500332650.84,49257,16.94,74576.8,4.49,3.81,3.81,0,*79
1500332652.05,49258,16.94,74574.5,4.51,3.81,3.81,0,*7F
1500332653.25,49259,16.94,74578.0,4.49,3.79,3.81,0,*70
1500332654.46,49260,16.94,74576.5,4.49,3.81,3.79,0,*7A
1500332655.66,49261,16.94,74576.3,4.49,3.81,3.79,0,*7B
1500332656.86,49262,16.94,74576.0,4.51,3.85,3.81,0,*72
1500332658.05,49263,16.94,74576.3,4.49,3.89,3.81,0,*76
1500332659.23,49264,16.94,74576.8,4.49,3.81,3.81,0,*79
1500332660.43,49265,16.94,74574.8,4.51,3.85,3.85,0,*71
1500332661.61,49266,16.94,74572.0,4.49,3.89,3.81,0,*73
1500332662.79,49267,16.94,74574.0,4.49,3.81,3.81,0,*7A
1500332664.0,49268,16.94,74576.8,4.51,3.81,3.81,0,*7C
1500332665.18,49269,16.94,74576.3,4.49,3.81,3.89,0,*7C
1500332666.39,49270,16.94,74574.8,4.49,3.79,3.81,0,*7B
1500332667.6,49271,16.94,74572.5,4.49,3.79,3.81,0,*7A
1500332668.83,49272,16.94,74574.8,4.49,3.79,3.79,0,*7E
1500332670.06,49273,16.94,74574.5,4.49,3.79,3.79,0,*7F
1500332671.29,49274,16.94,74578.3,4.49,3.79,3.79,0,*78
1500332672.52,49275,16.94,74576.3,4.49,3.75,3.79,0,*75
1500332673.72,49276,16.94,74572.5,4.49,3.81,3.79,0,*7D
1500332674.95,49277,16.94,74572.5,4.49,3.79,3.79,0,*7B
1500332676.14,49278,16.94,74576.3,4.49,3.81,3.81,0,*74
1500332677.35,49279,16.94,74574.5,4.49,3.79,3.81,0,*72
1500332678.55,49280,16.94,74576.5,4.47,3.81,3.81,0,*7D
1500332679.78,49281,16.94,74572.8,4.47,3.79,3.81,0,*7B
1500332681.01,49282,16.94,74574.8,4.47,3.81,3.79,0,*78
1500332682.21,49283,16.94,74578.5,4.45,3.81,3.79,0,*7B
1500332683.47,49284,16.94,74574.5,4.47,3.79,3.79,0,*79
1500332684.72,49285,16.94,74574.8,4.47,3.79,3.79,0,*78
1500332685.95,49286,16.94,74574.5,4.47,3.79,3.81,0,*7C
1500332687.18,49287,16.94,74576.0,4.47,3.81,3.79,0,*7D
1500332688.41,49288,16.94,74574.8,4.47,3.79,3.81,0,*72
1500332689.64,49289,16.94,74572.5,4.47,3.79,3.81,0,*73
1500332690.85,49290,16.94,74578.3,4.47,3.81,3.81,0,*7C
1500332692.08,49291,16.94,74572.8,4.47,3.79,3.81,0,*7A
1500332693.34,49292,16.94,74576.3,4.47,3.79,3.79,0,*7E
1500332694.59,49293,16.94,74574.3,4.47,3.79,3.79,0,*7F
1500332695.82,49294,16.94,74572.3,4.45,3.79,3.75,0,*76
1500332697.03,49295,16.94,74574.8,4.47,3.81,3.81,0,*79
1500332698.26,49296,16.94,74572.3,4.47,3.79,3.89,0,*75
1500332699.45,49297,16.94,74574.8,4.49,3.89,3.93,0,*7E
1500332700.66,49298,16.94,74572.5,4.47,3.89,3.93,0,*7F
1500332701.84,49299,16.94,74572.3,4.49,3.81,3.89,0,*73
1500332703.04,49300,16.94,74578.8,4.47,3.81,3.81,0,*74
1500332704.27,49301,16.94,74578.5,4.45,3.79,3.79,0,*77
1500332705.45,49302,16.94,74570.8,4.49,3.81,3.81,0,*78
1500332706.64,49303,16.94,74572.8,4.49,3.81,3.81,0,*79
1500332707.82,49304,16.94,74574.8,4.49,3.89,3.81,0,*76
1500332709.01,49305,16.94,74576.3,4.49,3.89,3.93,0,*74
1500332710.23,49306,16.94,74574.8,4.51,3.97,3.93,0,*71
1500332711.44,49307,16.94,74576.3,4.47,3.89,3.89,0,*73
1500332712.65,49308,16.94,74576.5,4.47,3.89,3.89,0,*7C
1500332713.84,49309,16.94,74572.8,4.49,3.89,3.89,0,*73
1500332715.06,49310,16.94,74576.8,4.51,3.97,3.93,0,*76
1500332716.25,49311,16.94,74576.0,4.49,3.93,3.93,0,*7A
1500332717.43,49312,16.94,74574.8,4.49,3.93,3.93,0,*79
1500332718.62,49313,16.94,74574.5,4.49,3.93,3.93,0,*78
1500332719.8,49314,16.94,74578.3,4.49,3.93,3.89,0,*74
1500332721.02,49315,16.94,74572.8,4.49,4.05,3.93,0,*76
1500332722.24,49316,16.94,74574.3,4.49,4.01,4.01,0,*7D
1500332723.47,49317,16.94,74576.0,4.49,4.01,4.05,0,*78
1500332724.67,49318,16.94,74572.5,4.49,4.01,3.93,0,*7F
1500332725.9,49319,16.94,74576.5,4.49,4.01,4.01,0,*72
1500332727.1,49320,16.94,74572.0,4.49,3.93,4.01,0,*74
1500332728.31,49321,16.94,74576.5,4.49,3.93,4.01,0,*75
1500332729.51,49322,16.94,74578.5,4.49,3.93,4.01,0,*76
1500332730.73,49323,16.94,74578.3,4.49,4.01,4.01,0,*7B
1500332731.94,49324,16.94,74578.0,4.49,3.93,4.01,0,*70
1500332733.13,49325,16.94,74578.0,4.49,3.93,3.93,0,*7D
1500332734.31,49326,16.94,74578.3,4.49,3.93,3.93,0,*7E
1500332735.5,49327,16.94,74576.0,4.49,3.89,3.93,0,*74
1500332736.68,49328,16.94,74576.8,4.49,3.89,3.93,0,*7B
1500332737.87,49329,16.94,74578.0,4.49,3.93,3.89,0,*7A
1500332739.05,49330,16.94,74576.8,4.49,3.89,3.93,0,*72
1500332740.24,49331,16.94,74578.3,4.49,3.93,3.89,0,*73
1500332741.44,49332,16.94,74576.8,4.49,3.97,3.93,0,*7F
1500332742.65,49333,16.94,74574.5,4.49,3.93,4.01,0,*76
1500332743.9,49334,16.94,74574.5,4.51,4.05,4.05,0,*74
1500332745.09,49335,16.94,74580.8,4.49,3.93,3.93,0,*7C
1500332746.27,49336,16.94,74578.5,4.49,3.89,3.93,0,*74
1500332747.47,49337,16.94,74578.5,4.51,3.85,3.85,0,*77
1500332748.65,49338,16.94,74578.8,4.49,3.93,3.93,0,*71
1500332749.84,49339,16.94,74576.3,4.49,3.93,3.93,0,*70
1500332751.04,49340,16.94,74582.3,4.49,3.93,4.01,0,*72
1500332752.29,49341,16.94,74576.3,4.51,3.97,3.97,0,*76
1500332753.49,49342,16.94,74582.0,4.53,3.93,3.97,0,*73
1500332754.68,49343,16.94,74580.3,4.49,3.89,3.89,0,*7D
1500332755.87,49344,16.94,74576.8,4.53,3.93,3.93,0,*71
1500332757.05,49345,16.94,74580.0,4.49,3.89,3.89,0,*7B
1500332758.26,49346,16.94,74576.8,4.49,3.79,3.81,0,*7F
1500332759.46,49347,16.94,74578.0,4.51,3.85,3.93,0,*77
1500332760.65,49348,16.94,74578.3,4.49,3.93,3.93,0,*76
1500332761.85,49349,16.94,74578.5,4.51,3.85,3.93,0,*79
1500332763.03,49350,16.94,74576.8,4.49,3.81,3.81,0,*7F
1500332764.22,49351,16.94,74578.8,4.49,3.81,3.81,0,*7E
1500332765.45,49352,16.94,74578.0,4.49,3.79,3.79,0,*7D
1500332766.65,49353,16.94,74578.0,4.49,3.81,3.79,0,*7B
1500332767.88,49354,16.94,74576.8,4.49,3.79,3.79,0,*7B
1500332769.06,49355,16.94,74576.3,4.49,3.81,3.81,0,*7A
1500332770.24,49356,16.94,74576.3,4.49,3.81,3.81,0,*79
1500332771.47,49357,16.94,74574.8,4.49,3.79,3.79,0,*78
1500332772.73,49358,16.94,74576.8,4.47,3.79,3.79,0,*79
1500332773.96,49359,16.94,74572.5,4.49,3.79,3.79,0,*76
1500332775.19,49360,16.94,74576.3,4.49,3.79,3.79,0,*7C
1500332776.42,49361,16.94,74576.3,4.49,3.79,3.79,0,*7D
1500332777.65,49362,16.94,74574.3,4.49,3.79,3.79,0,*7E
1500332778.91,49363,16.94,74572.0,4.47,3.67,3.75,0,*72
1500332780.14,49364,16.94,74574.0,4.49,3.75,3.75,0,*78
1500332781.38,49365,16.94,74576.5,4.49,3.79,3.75,0,*75
1500332782.58,49366,16.94,74576.5,4.47,3.81,3.89,0,*7C
1500332783.77,49367,16.94,74574.3,4.49,3.93,3.93,0,*7B
1500332784.95,49368,16.94,74576.0,4.49,3.93,3.89,0,*7F
1500332786.13,49369,16.94,74576.3,4.45,3.89,3.85,0,*75
1500332787.34,49370,16.94,74576.5,4.47,3.89,3.89,0,*73
1500332788.53,49371,16.94,74572.8,4.49,3.89,3.89,0,*7C
1500332789.74,49372,16.94,74578.5,4.47,3.89,3.81,0,*79
1500332790.95,49373,16.94,74578.0,4.47,3.89,3.81,0,*78
1500332792.13,49374,16.94,74578.8,4.49,3.89,3.89,0,*79
1500332793.32,49375,16.94,74578.3,4.49,3.93,3.89,0,*73
1500332794.5,49376,16.94,74576.5,4.49,3.89,3.89,0,*7B
1500332795.73,49377,16.94,74576.5,4.51,3.93,3.97,0,*77
1500332796.91,49378,16.94,74574.3,4.49,3.89,3.93,0,*7E
1500332798.12,49379,16.94,74576.5,4.49,3.93,4.01,0,*78
1500332799.33,49380,16.94,74576.3,4.49,3.93,4.05,0,*7A
1500332800.54,49381,16.88,74568.3,4.49,3.93,4.05,0,*7B
1500332801.79,49382,16.94,74574.8,4.51,4.05,4.05,0,*79
1500332803.02,49383,16.94,74576.3,4.49,4.01,4.01,0,*71
1500332804.2,49384,16.94,74574.8,4.49,3.93,3.93,0,*76
1500332805.43,49385,16.94,74572.5,4.51,3.97,3.93,0,*7A
1500332806.67,49386,16.94,74574.3,4.51,3.97,3.97,0,*7D
1500332807.92,49387,16.94,74574.0,4.51,3.97,3.97,0,*7C
1500332809.17,49388,16.94,74574.8,4.51,4.05,4.05,0,*73
1500332810.4,49389,16.94,74576.3,4.49,4.01,4.01,0,*7B
1500332811.61,49390,16.94,74574.5,4.49,3.89,4.05,0,*70
1500332812.79,49391,16.94,74576.8,4.49,3.93,3.93,0,*72
1500332814.02,49392,16.94,74576.0,4.49,4.01,4.01,0,*71
1500332815.24,49393,16.94,74578.5,4.49,4.01,4.01,0,*70
1500332816.49,49394,16.94,74576.5,4.51,3.97,4.05,0,*72
1500332817.69,49395,16.94,74574.3,4.49,3.93,4.01,0,*7A
1500332818.88,49396,16.94,74576.3,4.49,3.89,3.93,0,*7E
1500332820.07,49397,16.94,74578.3,4.49,3.89,3.89,0,*74
1500332821.29,49398,16.94,74576.3,4.51,3.93,3.97,0,*76
1500332822.5,49399,16.94,74582.8,4.49,3.97,3.93,0,*7E
1500332823.68,49400,16.94,74578.0,4.49,3.93,3.93,0,*7D
1500332824.89,49401,16.94,74576.3,4.51,3.93,3.93,0,*75
1500332826.09,49402,16.94,74578.0,4.51,3.93,3.93,0,*76
1500332827.28,49403,16.94,74578.5,4.49,3.89,3.89,0,*7E
1500332828.5,49404,16.94,74576.3,4.51,3.93,3.97,0,*74
1500332829.73,49405,16.94,74576.3,4.51,3.93,3.97,0,*75
1500332830.94,49406,16.94,74576.8,4.51,3.93,3.93,0,*72
1500332832.12,49407,16.94,74580.3,4.49,3.89,3.93,0,*71
1500332833.35,49408,16.94,74580.0,4.49,3.97,3.97,0,*75
1500332834.59,49409,16.94,74582.0,4.51,3.97,3.97,0,*7D
1500332835.8,49410,16.94,74576.5,4.49,4.01,3.89,0,*7B
1500332836.98,49411,16.94,74580.8,4.49,3.89,3.89,0,*7D
1500332838.21,49412,16.94,74580.3,4.51,3.93,3.97,0,*73
1500332839.43,49413,16.94,74576.8,4.51,3.93,3.97,0,*72
1500332840.62,49414,16.94,74576.8,4.49,3.93,3.89,0,*73
1500332841.81,49415,16.94,74578.8,4.49,3.93,3.93,0,*79
1500332843.05,49416,16.94,74580.8,4.51,3.97,4.05,0,*7F
1500332844.3,49417,16.94,74582.8,4.51,3.97,4.05,0,*7E
1500332845.56,49418,16.94,74578.3,4.51,4.05,4.05,0,*7D
1500332846.81,49419,16.94,74578.5,4.51,4.05,4.05,0,*7C
1500332848.04,49420,16.94,74576.5,4.49,3.97,3.97,0,*7F
1500332849.24,49421,16.94,74580.3,4.51,3.93,3.85,0,*70
1500332850.42,49422,16.94,74580.3,4.49,3.89,3.93,0,*76
1500332851.67,49423,16.94,74576.8,4.51,3.97,3.97,0,*75
1500332852.9,49424,16.94,74578.0,4.49,4.01,4.05,0,*7F
1500332854.12,49425,16.94,74580.0,4.51,3.97,4.07,0,*7D
1500332855.38,49426,16.94,74580.8,4.51,4.05,4.05,0,*70
1500332856.63,49427,16.94,74576.0,4.51,4.05,4.05,0,*71
1500332857.88,49428,16.94,74576.5,4.51,3.97,3.97,0,*7E
1500332859.13,49429,16.94,74578.0,4.51,3.97,3.97,0,*7F
1500332860.33,49430,16.94,74576.0,4.51,3.93,3.93,0,*77
1500332861.58,49431,16.94,74578.5,4.51,3.97,3.97,0,*76
1500332862.8,49432,16.88,74572.0,4.51,3.97,3.93,0,*71
1500332864.03,49433,16.94,74576.8,4.51,3.97,3.93,0,*70
1500332865.28,49434,16.94,74580.8,4.51,3.97,4.05,0,*7F
1500332866.53,49435,16.94,74578.8,4.51,3.97,4.05,0,*7E
1500332867.75,49436,16.94,74576.5,4.51,3.97,4.07,0,*7F
1500332868.96,49437,16.94,74578.8,4.51,3.93,3.93,0,*70
1500332870.18,49438,16.94,74578.0,4.51,3.97,3.93,0,*7B
1500332871.41,49439,16.94,74580.3,4.53,3.97,3.97,0,*7C
1500332872.66,49440,16.94,74576.8,4.51,4.05,3.97,0,*7C
1500332873.91,49441,16.94,74576.3,4.51,4.05,4.05,0,*71
1500332875.16,49442,16.94,74580.3,4.51,3.97,4.05,0,*7E
1500332876.41,49443,16.94,74576.8,4.51,3.97,4.05,0,*7F
1500332877.66,49444,16.94,74580.8,4.51,3.97,3.97,0,*74
1500332878.88,49445,16.94,74580.3,4.53,3.97,3.97,0,*77
1500332880.09,49446,16.94,74582.0,4.53,3.93,3.97,0,*70
1500332881.29,49447,16.94,74580.3,4.53,3.93,3.97,0,*71
1500332882.53,49448,16.94,74576.5,4.53,4.05,3.97,0,*76
1500332883.73,49449,16.94,74578.0,4.53,3.97,3.93,0,*7F
1500332884.96,49450,16.94,74578.3,4.53,3.97,4.05,0,*7F
1500332886.19,49451,16.94,74574.8,4.55,4.01,4.07,0,*72
1500332887.4,49452,16.94,74576.8,4.53,3.93,4.05,0,*79
1500332888.6,49453,16.94,74580.5,4.53,3.97,3.93,0,*74
1500332889.85,49454,16.94,74574.5,4.55,3.97,4.01,0,*79
1500332891.09,49455,16.94,74580.5,4.51,3.97,3.97,0,*74
1500332892.32,49456,16.94,74578.5,4.51,4.07,4.05,0,*75
1500332893.53,49457,16.94,74576.8,4.53,4.07,4.05,0,*76
1500332894.74,49458,16.94,74576.0,4.53,3.93,4.05,0,*73
1500332895.97,49459,16.94,74576.3,4.53,4.05,3.97,0,*76
1500332897.18,49460,16.94,74578.8,4.53,4.05,4.07,0,*72
1500332898.41,49461,16.94,74576.0,4.53,3.97,3.97,0,*71
1500332899.62,49462,16.94,74580.5,4.53,3.93,4.05,0,*7A
1500332900.85,49463,16.94,74578.0,4.53,3.97,4.05,0,*7F
1500332902.09,49464,16.94,74582.0,4.55,4.01,3.97,0,*7A
1500332903.3,49465,16.94,74578.5,4.53,3.93,3.97,0,*71
1500332904.48,49466,16.94,74582.5,4.53,3.93,3.93,0,*76
1500332905.71,49467,16.94,74578.5,4.53,3.97,4.05,0,*7B
1500332906.95,49468,16.94,74578.0,4.53,4.05,4.05,0,*78
1500332908.18,49469,16.94,74582.0,4.53,4.05,3.97,0,*75
1500332909.36,49470,16.94,74578.0,4.53,3.85,3.93,0,*76
1500332910.54,49471,16.94,74576.3,4.53,3.85,3.85,0,*70
1500332911.71,49472,16.94,74576.5,4.53,3.85,3.85,0,*73
1500332912.92,49473,16.94,74578.3,4.53,3.93,3.97,0,*76
1500332914.1,49474,16.94,74576.3,4.53,3.93,3.93,0,*75
1500332915.29,49475,16.94,74578.5,4.53,3.93,3.93,0,*74
1500332916.49,49476,16.94,74578.8,4.53,3.93,3.97,0,*73
1500332917.68,49477,16.94,74578.0,4.53,3.93,3.93,0,*76
1500332918.88,49478,16.94,74580.8,4.53,3.97,3.93,0,*7D
1500332920.09,49479,16.94,74576.3,4.53,3.97,3.93,0,*7C
1500332921.27,49480,16.94,74582.0,4.53,3.93,3.93,0,*7E
1500332922.46,49481,16.94,74578.3,4.53,3.93,3.93,0,*7F
1500332923.64,49482,16.94,74580.8,4.53,3.93,3.85,0,*7B
1500332924.81,49483,16.94,74576.8,4.53,3.85,3.85,0,*7D
1500332926.02,49484,16.94,74576.3,4.55,3.89,3.85,0,*70
1500332927.19,49485,16.94,74578.0,4.53,3.85,3.85,0,*7B
1500332928.4,49486,16.94,74580.0,4.51,3.85,3.93,0,*7D
1500332929.62,49487,16.94,74578.8,4.51,3.93,3.97,0,*7F